Regional Weather Roundup
Issued by NWS Albany, NY

Home | Current Version | Previous Version | Graphics & Text | Print | Product List | Glossary Off
Versions: 1 2 3 4 5 6 7 8 9 10 11 12 13 14 15 16 17 18 19 20 21 22 23 24 25 26 27 28 29 30 31 32 33 34 35 36 37 38 39 40 41 42 43 44 45 46 47 48 49 50

000
ASUS41 KALY 262010
RWRALY

NEW YORK STATE HOURLY WEATHER ROUNDUP
NATIONAL WEATHER SERVICE ALBANY NY
300 PM EST MON JAN 26 2015

NOTE: "FAIR" INDICATES FEW OR NO CLOUDS BELOW 12,000 FEET WITH NO
SIGNIFICANT WEATHER AND/OR NO OBSTRUCTIONS TO VISIBILITY.

NYZ032-033-038>043-046>054-057>066-NYZ062>081-262100-
EAST


CITY           SKY/WX    TMP DP  RH WIND       PRES   REMARKS
ALBANY         FLURRIES  17  -1  45 N7        30.04R WCI   8
GLENS FALLS    CLOUDY    18   1  47 E8        30.05R WCI   8
POUGHKEEPSIE   LGT SNOW  20  12  71 N9        29.93F WCI   9
NEWBURGH       LGT SNOW  18  14  86 NE14      29.92F FOG     WCI   4
MONTGOMERY     LGT SNOW  18  12  77 NE15      29.90F VSB 3/4 WCI   4
WHITE PLAINS   LGT SNOW  22  18  85 NE12      29.85F VSB 3/4 WCI  10
ISLIP          LGT SNOW  27  23  85 NE20G29   29.82F VSB 3/4 WCI  13
NEW YORK CITY  SNOW      23  21  92 NE14G21   29.88F VSB 1/4 WCI  11
CENTRAL PARK   HVY SNOW  24  19  81 NE13G20   29.88F VSB 1/4 WCI  12
$$

NYZ005>009-017-018-044>046-055-056-262100-
CENTRAL


CITY           SKY/WX    TMP DP  RH WIND       PRES   REMARKS
FULTON         LGT SNOW  20  10  65 E5        29.95S WCI  13
SYRACUSE       LGT SNOW  15  11  83 NE13      29.93F FOG     WCI   1
ROME           FLURRIES  19  10  68 E12G17    29.98S WCI   7
ELMIRA         LGT SNOW  19  15  84 NE9       29.85S VSB 3/4 WCI   8
BINGHAMTON     LGT SNOW  16  12  84 E8        29.80S FOG     WCI   5
MONTICELLO     CLOUDY    16  12  86 E15       29.83F WCI   1
$$

NYZ026>034-041>043-262100-
NORTH


CITY           SKY/WX    TMP DP  RH WIND       PRES   REMARKS
WATERTOWN      CLOUDY    14   0  53 NE16      30.02S WCI  -2
FORT DRUM      NOT AVBL
MASSENA        SUNNY      7  -4  60 NE20      30.13F WCI -13
SARANAC LAKE   CLOUDY    10  -6  48 NE12      29.90F WCI  -5
PLATTSBURGH    SUNNY      9  -2  61 N13       30.13S WCI  -7
$$

NYZ001>004-010>016-019>021-262100-
WEST


CITY           SKY/WX    TMP DP  RH WIND       PRES   REMARKS
NIAGARA FALLS  LGT SNOW  20  14  77 NE20G26   29.88S WCI   4
BUFFALO        LGT SNOW  19  13  77 NE17      29.86S WCI   4
DUNKIRK        CLOUDY    20  15  81 NE12      29.83S WCI   8
JAMESTOWN      CLOUDY    18  12  79 E6        29.73R WCI   9
WELLSVILLE     LGT SNOW  15   9  76 E7        29.74S WCI   5
ROCHESTER      LGT SNOW  17  11  77 E13       29.93R WCI   4
PENN YAN       SNOW      15  10  80 VRB5      29.88S VSB 1/2 WCI   8
$$

             KEY
       WCI = WIND CHILL INDEX
       VSB = VISIBILITY
       HX  = HEAT INDEX
$$


USA.gov is the U.S. government's official web portal to all federal, state and local government web resources and services.